Location: Prairie Dale
(45.6972°N, 104.5033°W)
Time: 21:55:07
(UTC+00:00)

ESTCUBE 1 - Pass Details

Date: 01 July 2022
Orbit: 645 x 657 km, 97.9° (Epoch: 16 August)

Event Time Altitude Azimuth Distance (km) Brightness Sun altitude
Exits shadow 05:16:23 29° 184° (S) 1,193 ? -17.1°
Maximum altitude 05:18:36 66° 258° (WSW) 709 ? -17.3°
Drops below altitude 10° 05:23:04 10° 341° (NNW) 2,059 ? -17.6°
Sets 05:25:19 0° 345° (NNW) 2,976 ? -17.8°
